Weather Roundup
Issued by NWS

Home | Current Version | Previous Version | Text Only | Print | Product List | Glossary On
Versions: 1 2 3 4 5 6 7 8 9 10 11 12 13 14 15 16 17 18 19 20 21 22 23 24 25 26 27 28 29 30 31 32 33 34 35 36 37 38 39 40 41 42 43 44 45 46 47 48 49 50
271
NZUS93 KARX 080559
HRRWXR

CURRENT HOURLY OBSERVATIONS ACROSS
MUCH OF THE UPPER MISSISSIPPI VALLEY
NATIONAL WEATHER SERVICE LA CROSSE WI
1200 AM CST THU DEC 08 2016


...SOUTHEAST MINNESOTA...


CITY           SKY/WX    TMP DP  RH WIND       PRES   REMARKS
ROCHESTER      MIX PCPN  12   6  77 W20G26    30.14R WCI  -6
ROCHESTER/MAYO CLOUDY    13   8  79 W20G28    30.15R WCI  -5
WINONA         FLURRIES  19  12  73 W17       30.17R WCI   4
AUSTIN         MOCLDY    10   5  79 W16G26    30.18S WCI  -7
ALBERT LEA     MOCLDY    16   9  73 W13G23    30.20S WCI   2
DODGE CENTER   MOCLDY    12   7  79 W16G26    30.14S WCI  -4
PRESTON        CLOUDY    11   5  78 W21       30.16S WCI  -8
OWATONNA       LGT SNOW  12   7  79 W20G25    30.18S WCI  -6
FARIBAULT      NOT AVBL
$$

...ELSEWHERE IN MINNESOTA...


CITY           SKY/WX    TMP DP  RH WIND       PRES   REMARKS
MINNEAPOLIS    LGT SNOW  16   9  74 W20G28    30.15R WCI  -1
INTNL FALLS    CLOUDY    21  16  81 NW12      30.02R HAZE    WCI   9
DULUTH         LGT SNOW  20  17  88 W12       29.93R FOG     WCI   8
RED WING       LGT SNOW  18  10  73 W18G24    30.14R WCI   2
REDWOOD FALLS  CLOUDY    13   6  74 W22G28    30.25R WCI  -6
MANKATO        FLURRIES  12   8  84 W18       30.21S WCI  -6
WORTHINGTON    CLEAR      7   2  80 W26G35    30.28S WCI -15
FAIRMONT       MOCLDY    11   4  73 NW25      30.26S WCI -10
$$

...SOUTHWEST WISCONSIN...


CITY           SKY/WX    TMP DP  RH WIND       PRES   REMARKS
LA CROSSE      CLOUDY    19   8  62 W17G24    30.16R WCI   4
PRAIRIE DU CHI LGT SNOW  19  11  72 W17G26    30.20R WCI   4
BOSCOBEL       LGT SNOW  20  10  65 W10G22    30.18S WCI   9
LONE ROCK      NOT AVBL
PLATTEVILLE    CLOUDY    21  16  79 W17G26    30.15R WCI   7
FORT MC COY    FLURRIES  19  13  78 W10G16    30.11R WCI   7
CAMP DOUGLAS   FLURRIES  19  12  73 W18       30.07S WCI   4
MAUSTON-NEW LI CLOUDY    19  11  70 W10G20    30.08R WCI   8
VIROQUA        CLOUDY    17  10  73 W15       30.10R WCI   2
WIS DELLS      CLOUDY    19  10  68 W15       30.08S WCI   5
$$

...ELSEWHERE IN WISCONSIN...


CITY           SKY/WX    TMP DP  RH WIND       PRES   REMARKS
MILWAUKEE      FLURRIES  24  12  60 W13G24    30.09S WCI  12
MADISON        CLOUDY    20  11  68 W12G23    30.10R WCI   8
GREEN BAY      CLOUDY    23  14  68 W21       30.00S WCI   8
EAU CLAIRE     NOT AVBL
BLACK RVR FLS  CLOUDY    19  10  68 W14G22    30.10R WCI   5
MEDFORD        LGT SNOW  14   8  78 W10G18    29.96S WCI   1
WAUSAU         FLURRIES  16   9  74 W18G28    29.98R WCI   0
WIS RAPIDS     CLOUDY    19  11  70 W14G21    30.04S WCI   6
MARSHFIELD     FLURRIES  16   9  74 W14G25    30.00S WCI   2
RICE LAKE      LGT SNOW  16  10  80 W15G21    30.05R WCI   1
$$

...NORTHEAST IOWA...


CITY           SKY/WX    TMP DP  RH WIND       PRES   REMARKS
WATERLOO       CLOUDY    16   8  71 W16G22    30.26R WCI   1
DUBUQUE        CLOUDY    19  11  70 W16G24    30.18R WCI   4
DECORAH        CLOUDY    12   7  79 W8G17     30.17S WCI   1
MASON CITY     PTCLDY    11   4  73 W20G29    30.26R WCI  -7
CHARLES CITY   MOCLDY    12   5  73 W23G29    30.23S WCI  -7
OELWEIN        FLURRIES  16  10  79 W22G35    30.22S WCI  -2
$$

...ELSEWHERE IN IOWA...


CITY           SKY/WX    TMP DP  RH WIND       PRES   REMARKS
DES MOINES     MOCLDY    18   8  65 NW21G30   30.36R WCI   1
IOWA CITY      CLOUDY    20  11  68 W16       30.31R WCI   6
FORT DODGE     PTCLDY    12   1  62 NW13G21   30.32S WCI  -3
MARSHALLTOWN   CLOUDY    17   9  70 W23G31    30.30R WCI  -1
CEDAR RAPIDS   CLOUDY    18  12  77 W20G29    30.26R WCI   2
$$

...NORTHERN ILLINOIS...


CITY           SKY/WX    TMP DP  RH WIND       PRES   REMARKS
CHICAGO-OHARE  FLURRIES  23  13  65 W16G33    30.14S WCI  10
CHICAGO-MIDWAY FLURRIES  25  13  60 W18       30.16S WCI  11
MOLINE         CLEAR     21  11  65 W15G29    30.25F WCI   8
ROCKFORD       FLURRIES  24  14  65 W18G26    30.17S WCI  10
PEORIA         CLEAR     22  12  65 W13G20    30.29S WCI  10
$$

NOTE: "FAIR" INDICATES FEW OR NO CLOUDS BELOW 12,000 FEET WITH NO
SIGNIFICANT WEATHER AND/OR OBSTRUCTIONS TO VISIBILITY. WIND
SPEEDS ARE IN MILES-PER-HOUR.




USA.gov is the U.S. government's official web portal to all federal, state and local government web resources and services.